TimeEDT,TemperatureF,Dew PointF,Humidity,Sea Level PressureIn,VisibilityMPH,Wind Direction,Wind SpeedMPH,Gust SpeedMPH,PrecipitationIn,Events,Conditions,WindDirDegrees,DateUTC
12:15 AM,33.1,31.8,95,29.82,10.0,West,12.7,21.9,N/A,,Overcast,270,2013-04-20 04:15:00
12:34 AM,33.1,31.1,92,29.83,10.0,West,11.5,18.4,N/A,,Overcast,260,2013-04-20 04:34:00
4:00 AM,32.0,29.3,90,29.91,10.0,WNW,12.7,18.4,N/A,,Overcast,290,2013-04-20 08:00:00
4:14 AM,32.0,28.8,88,29.92,10.0,WNW,12.7,-,N/A,,Overcast,290,2013-04-20 08:14:00
4:35 AM,32.2,27.3,82,29.93,10.0,WNW,12.7,19.6,N/A,,Overcast,290,2013-04-20 08:35:00
5:15 AM,32.0,24.4,74,29.95,10.0,WNW,12.7,21.9,N/A,,Overcast,300,2013-04-20 09:15:00
5:35 AM,32.0,23.9,72,29.96,10.0,WNW,13.8,20.7,N/A,,Mostly Cloudy,300,2013-04-20 09:35:00
5:55 AM,31.8,24.8,75,29.98,10.0,WNW,17.3,21.9,N/A,Snow,Light Snow,300,2013-04-20 09:55:00
6:15 AM,31.3,24.8,77,29.99,10.0,WNW,12.7,20.7,N/A,,Overcast,300,2013-04-20 10:15:00
6:35 AM,31.1,24.8,77,30.00,10.0,WNW,8.1,-,N/A,,Overcast,290,2013-04-20 10:35:00
6:55 AM,31.5,24.4,75,30.02,10.0,WNW,10.4,-,N/A,,Overcast,290,2013-04-20 10:55:00
7:15 AM,31.6,23.9,73,30.03,10.0,NW,8.1,-,N/A,,Overcast,320,2013-04-20 11:15:00
7:35 AM,31.6,22.6,69,30.04,10.0,WNW,13.8,19.6,N/A,,Mostly Cloudy,300,2013-04-20 11:35:00
8:15 AM,32.0,22.1,67,30.07,10.0,NW,15.0,18.4,N/A,,Overcast,310,2013-04-20 12:15:00
8:35 AM,32.2,21.2,64,30.08,10.0,WNW,15.0,25.3,N/A,,Scattered Clouds,300,2013-04-20 12:35:00
8:54 AM,32.5,21.9,65,30.09,10.0,NW,12.7,17.3,N/A,,Scattered Clouds,320,2013-04-20 12:54:00
9:15 AM,33.1,23.4,67,30.11,10.0,NNW,9.2,-,N/A,,Scattered Clouds,330,2013-04-20 13:15:00
9:34 AM,33.1,23.5,68,30.12,10.0,WNW,13.8,-,N/A,,Mostly Cloudy,300,2013-04-20 13:34:00
9:55 AM,33.8,23.2,65,30.13,10.0,WNW,13.8,19.6,N/A,,Overcast,300,2013-04-20 13:55:00
10:15 AM,33.4,23.2,66,30.15,10.0,WNW,16.1,19.6,N/A,,Overcast,290,2013-04-20 14:15:00
10:35 AM,34.9,23.9,64,30.15,10.0,NW,11.5,16.1,N/A,,Overcast,310,2013-04-20 14:35:00
10:55 AM,35.1,23.9,64,30.17,10.0,West,12.7,18.4,N/A,,Mostly Cloudy,280,2013-04-20 14:55:00
11:15 AM,34.9,23.0,62,30.17,10.0,West,15.0,18.4,N/A,,Overcast,280,2013-04-20 15:15:00
11:35 AM,34.9,23.7,64,30.19,10.0,West,15.0,-,N/A,,Overcast,280,2013-04-20 15:35:00
11:55 AM,35.2,22.8,61,30.20,10.0,WNW,11.5,-,N/A,,Overcast,300,2013-04-20 15:55:00
12:15 PM,35.8,23.2,60,30.21,10.0,WNW,17.3,-,N/A,,Overcast,290,2013-04-20 16:15:00
12:35 PM,36.5,23.7,60,30.22,10.0,WNW,11.5,17.3,N/A,,Overcast,300,2013-04-20 16:35:00
12:55 PM,36.5,23.5,59,30.22,10.0,WNW,15.0,-,N/A,,Overcast,290,2013-04-20 16:55:00
1:15 PM,36.5,22.1,56,30.23,10.0,WNW,9.2,19.6,N/A,,Overcast,290,2013-04-20 17:15:00
1:35 PM,36.5,23.5,59,30.24,10.0,WNW,11.5,18.4,N/A,,Overcast,300,2013-04-20 17:35:00
1:55 PM,37.9,24.6,59,30.24,10.0,WNW,15.0,21.9,N/A,,Overcast,290,2013-04-20 17:55:00
2:14 PM,37.4,23.9,58,30.25,10.0,NW,13.8,21.9,N/A,,Overcast,310,2013-04-20 18:14:00
2:35 PM,38.7,23.7,55,30.26,10.0,West,19.6,24.2,N/A,,Overcast,280,2013-04-20 18:35:00
2:55 PM,37.6,23.4,57,30.26,10.0,WNW,12.7,24.2,N/A,,Mostly Cloudy,300,2013-04-20 18:55:00
3:14 PM,38.1,23.4,55,30.27,10.0,West,16.1,19.6,N/A,,Mostly Cloudy,280,2013-04-20 19:14:00
3:35 PM,38.7,22.8,53,30.28,10.0,WNW,12.7,19.6,N/A,,Mostly Cloudy,300,2013-04-20 19:35:00
3:55 PM,40.5,23.9,52,30.28,10.0,NW,13.8,19.6,N/A,,Mostly Cloudy,310,2013-04-20 19:55:00
4:15 PM,37.9,21.0,51,30.29,10.0,NW,11.5,21.9,N/A,,Scattered Clouds,320,2013-04-20 20:15:00
4:35 PM,39.6,22.6,51,30.30,10.0,WNW,16.1,21.9,N/A,,Scattered Clouds,300,2013-04-20 20:35:00
4:55 PM,38.3,21.0,50,30.31,10.0,WNW,12.7,20.7,N/A,,Scattered Clouds,290,2013-04-20 20:55:00
5:15 PM,39.6,20.8,47,30.31,10.0,West,9.2,23.0,N/A,,Scattered Clouds,270,2013-04-20 21:15:00
5:35 PM,38.8,19.0,45,30.32,10.0,WNW,15.0,21.9,N/A,,Scattered Clouds,300,2013-04-20 21:35:00
5:55 PM,39.0,18.7,44,30.32,10.0,West,16.1,19.6,N/A,,Clear,280,2013-04-20 21:55:00
6:15 PM,38.7,19.6,46,30.33,10.0,NW,9.2,17.3,N/A,,Clear,310,2013-04-20 22:15:00
6:35 PM,38.1,18.7,46,30.34,10.0,NW,10.4,16.1,N/A,,Scattered Clouds,320,2013-04-20 22:35:00
6:54 PM,37.8,16.9,43,30.35,10.0,NW,12.7,19.6,N/A,,Clear,310,2013-04-20 22:54:00
7:15 PM,37.2,16.5,43,30.34,10.0,NW,9.2,-,N/A,,Clear,320,2013-04-20 23:15:00
7:35 PM,36.5,14.2,40,30.35,10.0,NW,8.1,17.3,N/A,,Clear,320,2013-04-20 23:35:00
7:55 PM,36.0,15.3,43,30.35,10.0,NNW,8.1,-,N/A,,Clear,340,2013-04-20 23:55:00
8:15 PM,35.1,17.2,48,30.36,10.0,NNW,3.5,-,N/A,,Clear,330,2013-04-21 00:15:00
8:35 PM,34.2,17.6,51,30.37,10.0,North,3.5,-,N/A,,Clear,350,2013-04-21 00:35:00
8:55 PM,34.0,16.3,49,30.37,10.0,Calm,Calm,-,N/A,,Clear,0,2013-04-21 00:55:00
9:15 PM,33.1,18.1,54,30.38,10.0,North,3.5,-,N/A,,Clear,360,2013-04-21 01:15:00
9:35 PM,32.5,21.0,63,30.39,10.0,Calm,Calm,-,N/A,,Clear,0,2013-04-21 01:35:00
9:55 PM,31.1,20.5,65,30.41,10.0,Calm,Calm,-,N/A,,Clear,0,2013-04-21 01:55:00
10:15 PM,29.8,23.7,78,30.42,10.0,Calm,Calm,-,N/A,,Clear,0,2013-04-21 02:15:00
10:35 PM,29.7,20.3,68,30.42,10.0,Calm,Calm,-,N/A,,Clear,0,2013-04-21 02:35:00
10:55 PM,29.3,23.0,77,30.42,10.0,Calm,Calm,-,N/A,,Clear,0,2013-04-21 02:55:00
11:15 PM,28.8,22.6,78,30.43,10.0,Calm,Calm,-,N/A,,Clear,0,2013-04-21 03:15:00
11:35 PM,28.4,22.1,77,30.43,10.0,Calm,Calm,-,N/A,,Clear,0,2013-04-21 03:35:00
11:55 PM,27.1,21.7,80,30.44,10.0,Calm,Calm,-,N/A,,Clear,0,2013-04-21 03:55:00